Showing default

NOAA 20, 43013

Orbit data source: Space-Track

NOAA 20, 43013 is an American payload satellite in SSO that was launched on Sat, 18 Nov 2017 UTC via a DELTA 7920-10C launch vehicle from the Air Force Western Test Range (AFWTR). Payload-class satellites include a variety of spacecraft equipped with specific instruments for various scientific and technological missions. These include communications satellites like Starlink; space stations such as the ISS; scientific satellites like the Hubble; Earth observation satellites from companies like Planet Labs, Umbra, and HawkEye 360; GPS; miniature CubeSats for education and research; and military/defense satellites.

Loading next visibility...
Identifier
43013, 2017-073A
Orbit
SSO
Country
Flag of USUS
Related business
Manufacturer
Ball
Mission
Operational Civil Weather
Bus & Motor
BCP-2000, AOCS
Mass
2,220 kg wet, ~1,400 kg dry
Launch date (UTC)
2017-11-18 (8 years ago)
Launch vehicle
DELTA 7920-10C
Launch site
Air Force Western Test Range (AFWTR)
Object type
Payload
Rocket body
Debris
Shape & HBR
Box + 1 Pan, 5.4 m
Radar Cross Section
8.434 m², Large (>1 m²)

Expand to show TLE details & history
Last TLE update: 11 hours ago

TLE from 11 hours ago
0 NOAA 20
1 43013U 17073A   25303.28898915  .00000158  00000-0  95655-4 0  9990
2 43013  98.7525 240.0764 0000927 147.7947 212.3285 14.19507980411855
Epoch: 2025-10-30T06:56Z
TLE epoch observation values (Epoch: 2025-10-30T06:56:08.662Z)
Latitude
-0.00011°
Longitude
97.19041°
Altitude
830.494 km
Speed
7.437 km/s
True Right ascension
16h 00m 18s
True Declination
0° 00' 00"
Sunlit
Object was in daylight at epoch
Visualization orbit readout
Latitude
Unknown
Longitude
Unknown
Altitude
Unknown
Speed
Unknown
Apparent Right ascension
Unknown
Apparent Declination
Unknown
Sunlit
N/A
Visualization observer readout
Local Sidereal Time
13:53:15
Azimuth
Unknown
Elevation
Unknown
Doppler factor
Unknown
Orbital elements
Apogee altitude
824.846 km
Perigee altitude
823.511 km
Semi-major axis
7,202.316 km
Eccentricity
0.00009
Inclination
98.7525°
RAAN
240.0764°
Arg. of periapsis
147.7947°
True anomaly
212.32282°
Mean anomaly
212.3285°
Eccentric anomaly
212.32566°
Mean motion
3.55087 °/min
Orbital period
101.38 mins
BSTAR
0.000095655
Loading maneuver chart data...
Computing Atmospheric mass density...
Loading historical data...
Loading historical data...
Loading historical data...
Loading historical data...
Loading historical data...
Loading historical data...
Loading historical data...
Other satellites on launch #73 in the year 2017 (2017-11-18 UTC)

Documentation

Showing up to 5 results
|